map of EGS home
EGS - Airport
Location
City:  Egilsstašir, Iceland
Near (Alt.):Egilsstadir
ICAO:BIEG
IATA:EGS

Details
Type:Airport (Aerodrome, Airfield)
Latitude:65°17'00"N (65.283333)
Longitude:14°24'05"W (-14.401388)
Elevation:76 ft (23 m)
Variation:9.57°W (WMM2015v2 magnetic declination)
0.31° annual change
Runways:1
Longest:6562 × 148 ft (2000 × 45 m), paved

Time
Time Zone:UTC+0
Local Time:

Weather
METAR:BIEG 041400Z 18003KT 9999 SCT030 OVC060 M08/M09 Q1012 R04/390195
TAF:BIEG 041358Z 0415/0515 VRB02KT 9999 SCT030 BKN045 TXM05/0515Z TNM11/0421Z
BECMG 0510/0513 07012KT

Related Locations
Nearby:
Farthest:NZTB: 11777 mi / 18954 km
Terra Nova Bay [Mario Zucchelli Station], AQ

Find:

   beyond  
but within

Other Information
Maps:
NOTAMs:
Links:
Sources:

  
  • flag of Iceland
  

Airport Diagram

Airport diagram for EGS

Larger airport diagram (OBSOLETE) from NGA

Sectional Chart

Flight Planning
at skyvector.com

Satellite Image

Google Maps Satellite view

 

Copyright © 2004-2019 Karl L. Swartz. All rights reserved.
The Great Circle Mapper name and logo are trademarks of the Great Circle Mapper.
All other trademarks mentioned herein belong to their respective owners.
Please see credits for attibutions and further copyright information.

  Follow gcmap on Facebook Follow gcmap on Twitter GCmap on LinkedIn

hCard Microformat

Geo Microformat